User: anonymous   Login
Location: Fort Wayne
(41.1310°N, 85.1290°W)
Time: 18:59:02
(UTC-05:00)
Language:

Oscar 19 - Orbit

View from above orbital plane
View from above orbital plane
View from above satellite
View from above satellite

Ground track
Ground track

The orbit data is extracted from the following two-line orbital elements,

1 20442U 90005G   16343.36615143  .00000026  00000-0  25553-4 0  9994
2 20442  98.5590 275.9910 0011749 357.3063   2.8056 14.32841551404296
Epoch (UTC): 08 December 2016 08:47:15
Eccentricity: 0.0011749
inclination: 98.5590°
perigee height: 774 km
apogee height: 790 km
right ascension of ascending node: 275.9910°
argument of perigee: 357.3063°
revolutions per day: 14.32841551
mean anomaly at epoch: 2.8056°
orbit number at epoch: 40429

The dashed part of the orbit path shows where the satellite is in the earth's shadow,  

DLR